Weather reports worldwide

Advertisment
Brownsville/Int., United States of America (72250): temperature & dewpoint: 17.04.2018 08:00:00 - 23.04.2018 08:00:00 (CDT)Brownsville/Int., United States of America (72250): wind speed & gusts: 17.04.2018 08:00:00 - 23.04.2018 08:00:00 (CDT)Brownsville/Int., United States of America (72250): wind direction: 17.04.2018 08:00:00 - 23.04.2018 08:00:00 (CDT)Brownsville/Int., United States of America (72250): reduced air pressure: 17.04.2018 08:00:00 - 23.04.2018 08:00:00 (CDT)Brownsville/Int., United States of America (72250): visibility: 17.04.2018 08:00:00 - 23.04.2018 08:00:00 (CDT)Brownsville/Int., United States of America (72250): precipitation: 17.04.2018 08:00:00 - 23.04.2018 08:00:00 (CDT)
Date & Time tt [°C] td [°C] ff [km/h] ff [kn] fx [km/h] fx [kn] dd ppp [hPa] vv [km] rr [mm]
23.04.2018 08:00:00 22,2 18,3 11 6 - - NE 1017,7 16 -
23.04.2018 07:00:00 21,7 18,9 11 6 - - ENE 1016,7 16 0,0
23.04.2018 06:00:00 20,6 18,9 9 5 - - NNE 1016,0 16 -
23.04.2018 05:00:00 19,4 18,3 5 3 - - NE 1016,1 16 -
23.04.2018 04:00:00 19,4 18,3 5 3 - - NNE 1015,8 16 -
23.04.2018 03:00:00 20,0 18,3 5 3 - - E 1015,8 16 -
23.04.2018 02:00:00 20,0 17,8 8 4 - - ENE 1015,8 16 -
23.04.2018 01:00:00 20,0 17,8 9 5 - - ENE 1016,4 16 0,0
23.04.2018 00:00:00 20,6 17,8 5 3 - - NE 1017,1 16 -
22.04.2018 23:00:00 21,1 17,8 5 3 - - E 1017,2 16 -
22.04.2018 22:00:00 21,1 17,2 5 3 - - ESE 1016,3 16 -
22.04.2018 21:00:00 21,7 17,2 9 5 - - ENE 1015,4 16 -
22.04.2018 20:00:00 22,2 17,2 13 7 - - ENE 1014,9 16 -
22.04.2018 19:00:00 23,9 18,9 22 12 - - NE 1014,6 16 0,0
22.04.2018 18:00:00 25,0 19,4 22 12 - - NE 1014,5 16 -
22.04.2018 17:00:00 26,7 19,4 21 11 - - NE 1014,4 16 -
22.04.2018 16:00:00 26,7 20,0 24 13 - - NE 1015,1 16 -
22.04.2018 15:00:00 26,7 20,6 22 12 - - NE 1015,7 16 -
22.04.2018 14:00:00 27,2 21,1 21 11 - - NNE 1016,1 16 -
22.04.2018 13:00:00 29,4 21,7 28 15 - - NNE 1016,4 16 0,0
22.04.2018 12:00:00 29,4 22,8 16 9 - - NNE 1016,2 16 -
22.04.2018 11:00:00 26,7 22,8 18 10 - - NE 1016,3 16 -
22.04.2018 10:00:00 26,1 23,3 15 8 - - N 1015,8 16 -
22.04.2018 09:00:00 25,6 23,3 13 7 - - NNE 1015,3 16 -
22.04.2018 08:00:00 23,3 22,8 5 3 - - NE 1015,0 8 -
22.04.2018 07:00:00 22,8 22,8 8 4 - - NNE 1014,3 11 0,0
22.04.2018 06:00:00 22,8 22,2 8 4 - - NNE 1013,5 11 -
22.04.2018 05:00:00 22,8 22,2 11 6 - - S 1012,8 6 -
22.04.2018 04:00:00 22,2 21,7 8 4 - - SSE 1012,7 11 -
22.04.2018 03:00:00 23,3 22,8 8 4 - - SSE 1013,2 16 -
22.04.2018 02:00:00 24,4 23,3 11 6 - - S 1013,5 10 -
22.04.2018 01:00:00 22,8 22,2 9 5 - - SSE 1013,7 16 0,0
22.04.2018 00:00:00 23,9 22,8 11 6 - - S 1013,6 16 -
21.04.2018 23:00:00 25,0 22,8 22 12 - - SSE 1013,1 16 -
21.04.2018 22:00:00 25,0 22,8 21 11 - - SSE 1013,0 16 -
21.04.2018 21:00:00 25,0 22,8 21 11 - - SSE 1012,2 16 -
21.04.2018 20:00:00 25,6 22,2 22 12 - - SSE 1011,3 16 -
21.04.2018 19:00:00 26,7 22,2 29 16 - - SSE 1011,0 16 -
21.04.2018 18:00:00 27,8 21,7 35 19 50 27 SSE 1010,7 16 -
21.04.2018 17:00:00 29,4 22,8 28 15 50 27 SSE 1010,6 16 -
21.04.2018 16:00:00 28,3 22,8 31 17 - - SE 1010,9 16 -
21.04.2018 15:00:00 28,9 22,8 28 15 - - SE 1011,7 16 0,0
21.04.2018 14:00:00 27,2 22,8 31 17 48 26 SE 1012,5 16 0,0
21.04.2018 13:00:00 26,1 23,3 41 22 50 27 SE 1012,6 16 0,0
21.04.2018 12:00:00 27,2 22,8 39 21 50 27 SE 1013,5 16 -
21.04.2018 11:00:00 27,8 22,2 35 19 50 27 SE 1013,6 16 -
21.04.2018 10:00:00 27,8 22,8 34 18 - - SSE 1013,3 16 -
21.04.2018 09:00:00 25,6 22,2 28 15 - - SSE 1012,7 16 -
21.04.2018 08:00:00 25,0 22,2 28 15 - - SE 1012,0 16 -
21.04.2018 07:00:00 24,4 21,7 26 14 - - SE 1011,8 16 0,0
21.04.2018 06:00:00 23,9 21,7 28 15 - - SSE 1011,9 16 -
21.04.2018 05:00:00 23,9 21,7 26 14 - - SSE 1012,2 16 -
21.04.2018 04:00:00 23,3 21,1 21 11 - - SE 1012,7 16 -
21.04.2018 03:00:00 23,3 20,6 18 10 - - SE 1013,5 16 -
21.04.2018 02:00:00 22,8 20,0 16 9 - - SE 1014,4 16 -
21.04.2018 01:00:00 22,8 18,9 22 12 - - SE 1014,9 16 0,0
21.04.2018 00:00:00 22,8 18,3 18 10 - - SE 1015,7 16 -
20.04.2018 23:00:00 22,8 18,3 22 12 - - SE 1016,5 16 -
20.04.2018 22:00:00 22,8 18,3 16 9 - - SE 1016,4 16 -
20.04.2018 21:00:00 22,8 18,3 16 9 - - ESE 1016,1 16 -
20.04.2018 20:00:00 23,9 17,8 22 12 - - ESE 1015,9 16 -
20.04.2018 19:00:00 25,6 17,8 28 15 - - ESE 1016,0 16 0,0
20.04.2018 18:00:00 26,1 18,3 24 13 - - ESE 1016,3 16 -
20.04.2018 17:00:00 27,2 18,3 26 14 - - ESE 1016,5 16 -
20.04.2018 16:00:00 26,1 18,3 26 14 - - ESE 1017,2 16 -
20.04.2018 15:00:00 28,3 18,9 31 17 - - SE 1017,5 16 -
20.04.2018 14:00:00 27,2 18,3 34 18 - - E 1018,7 16 -
20.04.2018 13:00:00 28,3 18,9 29 16 - - ESE 1019,4 16 0,0
20.04.2018 12:00:00 26,7 18,9 22 12 - - E 1020,6 16 -
20.04.2018 11:00:00 27,2 18,9 18 10 - - E 1020,7 16 -
20.04.2018 10:00:00 25,6 18,9 15 8 - - E 1020,6 16 -
20.04.2018 09:00:00 23,3 20,6 11 6 - - E 1020,8 16 -
20.04.2018 08:00:00 21,1 20,0 9 5 - - ENE 1020,8 16 -
20.04.2018 07:00:00 19,4 18,9 9 5 - - NE 1020,0 16 0,0
20.04.2018 06:00:00 19,4 18,3 8 4 - - ENE 1019,2 16 -
20.04.2018 05:00:00 19,4 18,9 9 5 - - ENE 1019,1 10 -
20.04.2018 04:00:00 19,4 18,9 9 5 - - E 1019,1 16 -
20.04.2018 03:00:00 20,0 18,9 9 5 - - ENE 1019,8 10 -
20.04.2018 02:00:00 20,0 18,9 8 4 - - NE 1020,8 16 -
20.04.2018 01:00:00 20,0 18,3 8 4 - - ENE 1021,2 16 0,0
20.04.2018 00:00:00 20,6 18,3 5 3 - - ENE 1021,3 16 -
19.04.2018 23:00:00 20,6 18,3 8 4 - - ENE 1021,6 16 -
19.04.2018 22:00:00 21,7 18,3 11 6 - - ENE 1021,4 16 -
19.04.2018 21:00:00 22,2 18,3 13 7 - - ENE 1021,1 16 -
19.04.2018 20:00:00 23,3 18,3 16 9 - - ENE 1020,8 16 -
19.04.2018 19:00:00 24,4 18,3 22 12 - - ENE 1020,6 16 0,0
19.04.2018 18:00:00 25,0 18,9 22 12 - - ENE 1020,6 16 -
19.04.2018 17:00:00 26,7 18,9 29 16 - - NE 1020,5 16 -
19.04.2018 16:00:00 27,2 18,9 26 14 - - NE 1021,3 16 -
19.04.2018 15:00:00 27,2 18,9 21 11 - - ENE 1022,1 16 -
19.04.2018 14:00:00 26,7 18,9 22 12 - - NE 1022,6 16 -
19.04.2018 13:00:00 27,2 18,3 16 9 - - NE 1022,6 16 0,0
19.04.2018 12:00:00 27,2 18,3 18 10 - - NE 1022,6 16 -
19.04.2018 11:00:00 27,2 18,9 18 10 - - ENE 1022,0 16 -
19.04.2018 10:00:00 27,2 19,4 18 10 - - ENE 1021,3 16 -
19.04.2018 09:00:00 23,9 22,2 15 8 - - ENE 1021,0 16 -
19.04.2018 08:00:00 22,2 21,7 9 5 - - ENE 1020,9 16 -
19.04.2018 07:00:00 21,7 21,1 8 4 - - ENE 1020,1 16 0,0
19.04.2018 06:00:00 22,2 21,7 13 7 - - ENE 1018,9 16 -
19.04.2018 05:00:00 21,7 21,1 8 4 - - NNE 1019,1 16 -
19.04.2018 04:00:00 20,6 20,0 5 3 - - N 1018,4 16 -
19.04.2018 03:00:00 20,6 20,6 9 5 - - E 1017,8 16 -
19.04.2018 02:00:00 21,1 20,6 5 3 - - E 1017,9 16 -
19.04.2018 01:00:00 22,2 21,1 5 3 - - ESE 1018,2 16 0,0
19.04.2018 00:00:00 22,8 21,1 9 5 - - E 1017,8 16 -
18.04.2018 23:00:00 22,8 21,1 15 8 - - ESE 1017,6 16 -
18.04.2018 22:00:00 23,3 21,1 13 7 - - ESE 1017,3 16 -
18.04.2018 21:00:00 23,9 21,1 13 7 - - E 1016,0 16 -
18.04.2018 20:00:00 24,4 20,6 18 10 - - E 1015,1 16 -
18.04.2018 19:00:00 26,1 20,6 24 13 - - E 1014,5 16 0,0
18.04.2018 18:00:00 27,2 20,0 28 15 - - ESE 1013,8 16 -
18.04.2018 17:00:00 28,3 19,4 21 11 - - ESE 1014,2 16 -
18.04.2018 16:00:00 30,0 20,0 26 14 - - S 1013,3 16 -
18.04.2018 15:00:00 30,0 20,0 26 14 - - SSE 1013,3 16 -
18.04.2018 14:00:00 29,4 20,0 31 17 48 26 S 1013,3 16 -
18.04.2018 13:00:00 28,9 19,4 37 20 48 26 SSE 1013,4 16 0,0
18.04.2018 12:00:00 28,9 19,4 35 19 52 28 S 1013,4 16 -
18.04.2018 11:00:00 28,3 19,4 34 18 54 29 SSE 1013,6 16 -
18.04.2018 10:00:00 26,7 19,4 41 22 59 32 SSE 1012,7 10 -
18.04.2018 09:00:00 25,0 20,0 39 21 - - SSE 1012,0 16 -
18.04.2018 08:00:00 22,8 20,0 28 15 - - SSE 1011,6 16 -
18.04.2018 07:00:00 21,7 20,0 21 11 - - SSE 1011,2 16 0,0
18.04.2018 06:00:00 21,7 19,4 21 11 - - SSE 1011,1 16 -
18.04.2018 05:00:00 21,7 19,4 24 13 - - S 1011,2 16 -
18.04.2018 04:00:00 21,7 19,4 24 13 - - SSE 1011,5 10 -
18.04.2018 03:00:00 22,2 18,9 18 10 - - SSE 1012,2 16 -
18.04.2018 02:00:00 22,2 18,9 21 11 - - SSE 1012,8 16 -
18.04.2018 01:00:00 22,2 18,9 21 11 - - SSE 1013,5 16 0,0
18.04.2018 00:00:00 22,8 18,9 22 12 - - SSE 1013,6 16 -
17.04.2018 23:00:00 22,8 18,9 24 13 - - SSE 1013,7 16 -
17.04.2018 22:00:00 22,8 18,9 26 14 - - SSE 1013,5 16 -
17.04.2018 21:00:00 23,3 18,3 29 16 48 26 SSE 1012,3 16 -
17.04.2018 20:00:00 23,9 18,3 35 19 59 32 SSE 1012,1 16 -
17.04.2018 19:00:00 25,6 17,8 44 24 61 33 SSE 1012,1 16 0,0
17.04.2018 18:00:00 27,2 17,2 44 24 59 32 SSE 1011,9 16 -
17.04.2018 17:00:00 28,3 17,2 46 25 63 34 SSE 1012,1 16 -
17.04.2018 16:00:00 28,9 17,2 42 23 67 36 SSE 1012,7 16 -
17.04.2018 15:00:00 28,9 17,2 52 28 68 37 SSE 1013,5 16 -
17.04.2018 14:00:00 28,9 16,7 42 23 68 37 S 1014,4 16 -
17.04.2018 13:00:00 29,4 16,7 48 26 67 36 S 1015,0 16 0,0
17.04.2018 12:00:00 28,9 16,1 46 25 61 33 SSE 1016,2 16 -
17.04.2018 11:00:00 27,2 16,1 46 25 63 34 S 1016,6 16 -
17.04.2018 10:00:00 26,1 16,1 44 24 61 33 S 1016,8 16 -
17.04.2018 09:00:00 24,4 16,1 41 22 57 31 S 1016,5 16 -
17.04.2018 08:00:00 22,2 16,1 28 15 - - S 1016,4 16 -

tt = temperature
td = dewpoint
ff = wind speed
fx = gusts
dd = wind direction
ppp = reduced air pressure
vv = visibility
rr = precipitation

Next stations